Regional Weather Roundup
Issued by NWS

Home | Current Version | Previous Version | Text Only | Print | Product List | Glossary On
Versions: 1 2 3 4 5 6 7 8 9 10 11 12 13 14 15 16 17 18 19 20 21 22 23 24 25 26 27 28 29 30 31 32 33 34 35 36 37 38 39 40 41 42 43 44 45 46 47 48 49 50
000
ASUS44 KEWX 300011
RWRTX
SOUTH TEXAS REGIONAL WEATHER ROUNDUP
NATIONAL WEATHER SERVICE AUSTIN/SAN ANTONIO TX
700 PM CDT FRI JUL 29 2016

NOTE: "FAIR" INDICATED FEW OR NO CLOUDS BELOW 12,000 FEET WITH NO
SIGNIFICANT WEATHER AND/OR OBSTRUCTIONS TO VISIBILITY.

* - THESE STATIONS ARE NOT NWS OR FAA STATIONS...AND ARE NOT SUBJECT
    TO NWS AND FAA QUALITY CONTROL.

TXZ171-172-183>190-300100-
TEXAS HILL COUNTRY AND EDWARDS PLATEAU

CITY           SKY/WX    TMP DP  RH WIND       PRES   REMARKS
JUNCTION       MOSUNNY   94  62  34 SE15      29.94F HX  94
6HR MIN TEMP:  88; 6HR MAX TEMP:  96;

*LLANO         SUNNY     95  64  36 SE10G16   29.94F HX  97
BURNET         SUNNY     93  63  36 SE8       29.95F HX  94
6HR MIN TEMP:  85; 6HR MAX TEMP:  94; 6HR PCP:  0.01;

*HORSESHOE BAY SUNNY     93  59  31 S7        29.93F HX  92
6HR MIN TEMP:  87; 6HR MAX TEMP:  96;

*KERRVILLE     SUNNY     92  65  42 SE10G16   29.98F HX  94
6HR MIN TEMP:  86; 6HR MAX TEMP:  92;

*FREDERICKSBRG SUNNY     91  51  25 SE7       29.97F
6HR MIN TEMP:  84; 6HR MAX TEMP:  94;

*ROCKSPRINGS   MOSUNNY   90  63  40 SE14      30.01F HX  90
*BOERNE STAGE  CLOUDY    88  64  45 SE6       29.98F
*CASTROVILLE   CLOUDY    93  65  39 E7        29.94S HX  95
HONDO          SUNNY     92  68  45 SE10      29.94F HX  96
6HR MIN TEMP:  84; 6HR MAX TEMP:  93;

*UVALDE        SUNNY     92  66  42 E8        29.93F HX  95
6HR MIN TEMP:  86; 6HR MAX TEMP:  93;

DEL RIO        PTSUNNY   94  67  41 SE13      29.90F HX  97
6HR MIN TEMP:  83; 6HR MAX TEMP:  94;

LAUGHLIN AFB   MOSUNNY   92  69  45 SE9       29.90F HX  97
6HR MIN TEMP:  83; 6HR MAX TEMP:  95;

CARRIZO SPRGS  CLOUDY    97  63  32 E9        29.88F HX  98
*EAGLE PASS    CLEAR     93  64  38 E8        29.90F HX  95
$$

TXZ173-191>194-202-209-217>225-228-300100-
CENTRAL AND SOUTH CENTRAL TEXAS

CITY           SKY/WX    TMP DP  RH WIND       PRES   REMARKS
GEORGETOWN     SUNNY     91  64  40 SE8       29.92  HX  93
AUSTIN/BERGSTM MOSUNNY   94  70  45 SE6       29.92F HX 100
6HR MIN TEMP:  89; 6HR MAX TEMP:  95;

AUSTIN/MABRY   SUNNY     93  70  46 S6        29.94F HX  99
6HR MIN TEMP:  89; 6HR MAX TEMP:  96;

*AUSTIN/EXEC     N/A     93  70  46 SW3       29.93F HX  99
*LAGO VISTA    SUNNY     92  61  35 SE9       29.95F HX  93
6HR MIN TEMP:  89; 6HR MAX TEMP:  96;

SAN MARCOS     SUNNY     93  68  43 SE8       29.95F HX  97
6HR MIN TEMP:  88; 6HR MAX TEMP:  93;

NEW BRAUNFELS  CLOUDY    94  68  42 SE12      29.92F HX  98
6HR MIN TEMP:  88; 6HR MAX TEMP:  96;

RANDOLPH AFB   SUNNY     90  72  55 SE9       29.94F HX  97
6HR MIN TEMP:  86; 6HR MAX TEMP:  93;

PT SAN ANTONIO CLOUDY    91  72  53 E13       29.92F HX  98
6HR MIN TEMP:  86; 6HR MAX TEMP:  94; 6HR PCP: TRACE;

SAN ANTONIO    CLOUDY    91  70  49 SE17      29.94F HX  96
6HR MIN TEMP:  86; 6HR MAX TEMP:  95;

STINSON FIELD  CLOUDY    91  68  46 SE13      29.91F HX  95
6HR MIN TEMP:  89; 6HR MAX TEMP:  96;

*PLEASANTON    CLOUDY    82  70  67 E5        29.93S
6HR MIN TEMP:  82; 6HR MAX TEMP:  97;

*LA GRANGE       N/A     90  77  66 CALM      29.91F HX 102
6HR MIN TEMP:  89; 6HR MAX TEMP:  97;

*GIDDINGS      SUNNY     92  69  47 SE5       29.96F HX  96
6HR MIN TEMP:  88; 6HR MAX TEMP:  94;

*GONZALES      SUNNY     92  73  52 S8        29.93R HX 100
6HR MIN TEMP:  92; 6HR MAX TEMP:  99;

$$

TXZ163>164-176>182-195>201-210>213-226-227-235-300100-
SOUTHEAST TEXAS

CITY           SKY/WX    TMP DP  RH WIND       PRES   REMARKS
COLLEGE STN    SUNNY     94  71  47 S10       29.92F HX 101
6HR MIN TEMP:  90; 6HR MAX TEMP:  96;

*BRYAN         SUNNY     92  72  51 SE6       29.93S HX  99
6HR MIN TEMP:  84; 6HR MAX TEMP:  95;

*CALDWELL      SUNNY     91  66  43 S6        29.95S HX  94
*CROCKETT      SUNNY     88  70  55 S6        29.96F HX  92
*BRENHAM       SUNNY     94  71  45 SE8       29.93F HX 101
6HR MIN TEMP:  90; 6HR MAX TEMP:  96;

HUNTSVILLE     MOSUNNY   91  68  46 CALM      29.94F HX  95
6HR MIN TEMP:  82; 6HR MAX TEMP:  92; 6HR PCP:  0.01;

CONROE         MOSUNNY   89  74  60 SE3       29.94F HX  98
6HR MIN TEMP:  89; 6HR MAX TEMP:  94;

HOUSTON BUSH   MOSUNNY   89  73  59 SE12      29.94S HX  97
6HR MIN TEMP:  87; 6HR MAX TEMP:  96; 6HR PCP: TRACE;

HOUSTON HOBBY  MOSUNNY   85  73  67 S3        29.94S HX  91
6HR MIN TEMP:  80; 6HR MAX TEMP:  95; 6HR PCP:  0.04;

*HOUSTON SW AP MOSUNNY   82  75  80 S3        29.96F
6HR MIN TEMP:  82; 6HR MAX TEMP:  94;

PEARLAND       SUNNY     90  75  61 S7        29.96F HX 100
6HR MIN TEMP:  87; 6HR MAX TEMP:  97;

HOUSTON HOOKS  SUNNY     91  75  59 SE5       29.94S HX 101
6HR MIN TEMP:  82; 6HR MAX TEMP:  94; 6HR PCP: TRACE;

ELLINGTON FLD  MOSUNNY   88  73  62 SE8       29.94F HX  96
SUGAR LAND     PTSUNNY   80  74  81 SE7       29.95S
6HR MIN TEMP:  78; 6HR MAX TEMP:  95; 6HR PCP:  0.75;

*HOUSTON EXEC  MOSUNNY   90  73  58 SE17      29.96R HX  98
*CLEVELAND MUN SUNNY     88  80  76 SE3       29.95S HX 103
6HR MIN TEMP:  87; 6HR MAX TEMP:  94;

*WHARTON         N/A     90  75  61 SE10        N/A  HX 100
6HR MIN TEMP:  90; 6HR MAX TEMP:  98;

*COLUMBUS      FAIR      93  72  50 SE7       29.92F HX 100
6HR MIN TEMP:  89; 6HR MAX TEMP:  96;

*EAGLE LAKE    CLEAR     93  73  52 S6        29.93S HX 101
6HR MIN TEMP:  91; 6HR MAX TEMP:  94;

$$

TXZ214>216-236>238-300100-
THE UPPER TEXAS COAST

CITY           SKY/WX    TMP DP  RH WIND       PRES   REMARKS
*ORANGE        SUNNY     90  66  45 S5        29.97S HX  92
6HR MIN TEMP:  74; 6HR MAX TEMP:  91; 6HR PCP:  0.28;

PORT ARTHUR    SUNNY     90  74  59 S3        29.94F HX  99
6HR MIN TEMP:  75; 6HR MAX TEMP:  93; 6HR PCP:  0.10;

GALVESTON      SUNNY     87  75  67 SE10      29.97S HX  96
6HR MIN TEMP:  87; 6HR MAX TEMP:  90;

ANGLETON       SUNNY     90  75  61 S10       29.97R HX 100
6HR MIN TEMP:  90; 6HR MAX TEMP:  96;

*BAY CITY      SUNNY     89  75  62 S9        29.96S HX  99
PALACIOS       SUNNY     88  75  65 SE13      29.94F HX  97
6HR MIN TEMP:  88; 6HR MAX TEMP:  92;

$$

TXZ229>234-239>247-300100-
TEXAS COASTAL BEND AND RIO GRANDE PLAINS

CITY           SKY/WX    TMP DP  RH WIND       PRES   REMARKS
VICTORIA       MOSUNNY   90  71  53 SE12      29.93F HX  96
6HR MIN TEMP:  89; 6HR MAX TEMP:  96;

*BEEVILLE      SUNNY     83  79  86 CALM      29.93R HX  94
6HR MIN TEMP:  81; 6HR MAX TEMP:  94; 6HR PCP:  0.06;

ROCKPORT       SUNNY     88  75  65 SE15      29.92F HX  97
6HR MIN TEMP:  88; 6HR MAX TEMP:  94;

*PORT ARANSAS  MOSUNNY   87  79  76 SE12G18   29.93S HX 101
6HR MIN TEMP:  87; 6HR MAX TEMP:  91;

*PORT LAVACA   SUNNY     88  75  65 SE14      29.94S HX  98
6HR MIN TEMP:  88; 6HR MAX TEMP:  92;

*INGLESIDE     SUNNY     90  77  66 SE17      29.92S HX 102
CORPUS CHRISTI MOSUNNY   90  74  59 E17       29.92R HX  99
6HR MIN TEMP:  90; 6HR MAX TEMP:  96;

CORPUS NAS     MOSUNNY   89  75  63 SE15      29.92S HX  99
6HR MIN TEMP:  89; 6HR MAX TEMP:  92;

*ROBSTOWN      SUNNY     91  73  55 SE14      29.92R HX  98
6HR MIN TEMP:  91; 6HR MAX TEMP:  98;

ALICE          PTSUNNY   89  71  55 SE8       29.91R HX  95
6HR MIN TEMP:  84; 6HR MAX TEMP: 102;

KINGSVILLE NAS PTSUNNY   88  77  69 SE14      29.91R HX 100
6HR MIN TEMP:  88; 6HR MAX TEMP:  98;

COTULLA        LGT RAIN  82  74  76 SE8       29.91S
6HR MIN TEMP:  80; 6HR MAX TEMP:  98; 6HR PCP:  0.04;

*FAITH RANCH   PTSUNNY   91  68  46 SE28G37   29.90R HX  95
LAREDO         LGT RAIN  80  73  79 NE13      29.90R
$$

TXZ248>255-300100-
DEEP SOUTH TEXAS

CITY           SKY/WX    TMP DP  RH WIND       PRES   REMARKS
BROWNSVILLE    SUNNY     90  74  59 SE17      29.91F HX  99
6HR MIN TEMP:  89; 6HR MAX TEMP:  97;

PORT ISABEL    SUNNY     89  75  63 SE15      29.91S HX  99
6HR MIN TC1F1C2F2C3F3C4F4C5F5C6F6C7M1C8M2C9!


USA.gov is the U.S. government's official web portal to all federal, state and local government web resources and services.